COSMOS 2251 DEB

Satellite information

Favourite Embed

Satellite Type and Status

DEBRISIN ORBIT

Key statistics

Satellite COSMOS 2251 DEB at a glance.

Uptime

11869

Days in orbit

Revolutions

≈ 14.6

Per day

Orbit

LEO

Low Earth Orbit

Inclination

74.0

Latest

Satellite identification and parameters

Extended collection of information and parameters for COSMOS 2251 DEB.

Object identification

Identified? True

Debris? True

Object name: COSMOS 2251 DEB

International designator: 1993-036BRW

Object number (NORAD): 38064

Object ID (CCSDS): 38064

Country: COMMONWEALTH OF INDEPENDENT STATES (CIS)

Current information (Y/N): Y

RCS size: SMALL

Orbital parameters

Period: 98.882 minutes

Inclination: 74.0221 deg

SMA: 7083.333 km

Apoapsis: 738.837 km

Periapsis: 671.558 km

RAAN: 126.2067 deg

Eccentricy: 0.00474911

Argument of periapsis: 246.0166 deg

Mean anomaly: 113.6022 deg

Mean motion: 14.5628474 rev/day

Mean motion (dot): 0.00007206 rev/day2

B* drag term: 0.001607911 1/REarth

Two-line elements (TLE)

Creation date: Dec. 11, 2025, 7:14 p.m.

Reference frame: TEME

Reference center: EARTH

Epoch: Dec. 11, 2025, 3:35 p.m. UTC

TLE line 0: 0 COSMOS 2251 DEB

TLE line 1: 1 38064U 93036BRW 25345.64942293 .00007206 00000-0 16079-2 0 9990

TLE line 2: 2 38064 74.0221 126.2067 0047491 246.0166 113.6022 14.56284740718498

Live tracking on map

Real-time ground track for satellite COSMOS 2251 DEB.

In-orbit conjunctions

A list of the most updated potential collisions computed for object COSMOS 2251 DEB.

Target Orbit TCA Probability of collision Miss distance Type
COSMOS 2251 DEB LEO 2025-06-25 23:46:52 0.0001020083 442.0 (m) DEBRIS
MAST SSO 2025-02-12 23:17:36 0.001478726 356.0 (m) PAYLOAD
CZ-6A DEB LEO 2024-10-27 09:56:46 0.0002063427 280.0 (m) DEBRIS
SCOUT B-1 R/B LEO 2024-06-29 01:36:24 0.0007054994 282.0 (m) ROCKET BODY

Associated space launch

Military communications satellite. Destroyed in a collision with Iridium 33.

COSMOS 2251 DEB was lifted into orbit during the mission ‘Kosmos-3M | Strela-2M 51’, on board a Kosmos-3M space rocket.

The launch took place on June 16, 1993, 4:17 a.m. from 132/1 (132L).

For more information about the launch, click the button.

Launch to space Kosmos-3M | Strela-2M 51
Kosmos-3M | Strela-2M 51

Agency: N/A

Status: Launch Successful

Launch date: June 16, 1993, 4:17 a.m. UTC

Rocket: Kosmos-3M

Launch pad: 132/1 (132L)

Location: Plesetsk Cosmodrome, Russian Federation

...

Latest news about this satellite

There are no fresh news available about this satellite. Check back as we update our databases every day.


Newsletter sign-up

Weekly statistics, charts and insights to help you stay on top of the space industry.